Date String (YYYY-MM-DD hh:mm:ss) UTC,Instrument flags,absolute air pressure of the measurement (hPa),sample flow rate (lpm),inlet stack bypass flow (lpm),air temperature of the measurement (°C),ambient temperature measured by the external sensor (°C),aerosol sample conditioner tube jacket temperature (°C),OPC LED temperature (°C),internal box temperature (°C),relative humidity of the measurement (%),span deviation,mass concentration of particles derived from Lorenz-Mie calculation of OPC scattering (μg/m³),mass concentration of particles derived from Lorenz-Mie calculation of OPC scattering (μg/m³),mass concentration of particles derived from Lorenz-Mie calculation of OPC scattering (μg/m³)
DateTimeUTC,F1_M11,P_M11,Q1_M11,Q2_M11,T1_M11,T2_M11,T3_M11,T4_M11,T5_M11,U1_M11,ZSPAN_M11,X0_M11,X2_M11,X1_M11
2024-05-17 08:00:00,SystemResetWarning,0823.2,5.00,000.00,025.5,025.0,000.0,033.5,027.3,014.6,0000.0,0004.54,0002.25,0001.54
2024-05-17 08:01:00,SystemResetWarning,0823.1,5.00,000.00,025.6,025.0,000.0,033.6,027.4,014.6,0000.0,0004.61,0002.26,0001.55
2024-05-17 08:02:00,SystemResetWarning,0822.9,5.00,000.00,025.6,025.0,000.0,033.6,027.4,014.8,0000.0,0004.63,0002.28,0001.56
2024-05-17 08:03:00,SystemResetWarning,0823.3,5.00,000.00,025.6,025.0,000.0,033.6,027.4,014.7,0000.0,0004.49,0002.26,0001.58
2024-05-17 08:04:00,SystemResetWarning,0822.9,5.00,000.00,025.5,023.5,000.0,033.7,026.6,014.7,0000.0,0004.57,0002.30,0001.60
2024-05-17 08:05:00,SystemResetWarning,0822.7,5.01,000.00,025.0,022.0,000.0,033.7,025.7,015.2,0000.0,0005.66,0002.29,0001.59
2024-05-17 08:06:00,SystemResetWarning,0822.8,5.01,000.00,024.8,022.0,000.0,033.6,025.6,015.4,0000.0,0005.55,0002.27,0001.59
2024-05-17 08:07:00,SystemResetWarning,0822.8,4.99,000.00,024.7,022.3,000.0,033.5,025.8,015.6,0000.0,0005.39,0002.29,0001.59
2024-05-17 08:08:00,SystemResetWarning,0822.8,5.00,000.00,024.7,022.7,000.0,033.4,026.1,015.7,0000.0,0005.01,0002.26,0001.60
2024-05-17 08:09:00,SystemResetWarning,0822.8,5.00,000.00,024.7,023.0,000.0,033.3,026.2,015.9,0000.0,0005.19,0002.29,0001.60
2024-05-17 08:10:00,SystemResetWarning,0822.8,5.00,000.00,024.8,023.3,000.0,033.2,026.4,015.9,0000.0,0005.11,0002.30,0001.61
2024-05-17 08:11:00,SystemResetWarning,0822.8,5.00,000.00,024.8,023.5,000.0,033.2,026.5,016.0,0000.0,0005.23,0002.29,0001.60
2024-05-17 08:12:00,SystemResetWarning,0822.8,4.99,000.00,024.8,023.7,000.0,033.2,026.6,016.0,0000.0,0006.23,0002.29,0001.60
2024-05-17 08:13:00,SystemResetWarning,0822.8,5.00,000.00,024.9,023.9,000.0,033.2,026.6,016.0,0000.0,0006.59,0002.27,0001.60
2024-05-17 08:14:00,SystemResetWarning,0822.8,5.00,000.00,024.9,024.0,000.0,033.2,026.7,016.1,0000.0,0006.76,0002.31,0001.60
2024-05-17 08:15:00,SystemResetWarning,0822.8,5.00,000.00,025.0,024.1,000.0,033.2,026.7,016.1,0000.0,0006.85,0002.34,0001.61
2024-05-17 08:16:00,SystemResetWarning,0822.8,5.00,000.00,025.0,024.2,000.0,033.2,026.8,016.1,0000.0,0006.47,0002.35,0001.62
2024-05-17 08:17:00,SystemResetWarning,0822.8,4.99,000.00,025.0,024.3,000.0,033.2,026.8,016.1,0000.0,0006.70,0002.35,0001.62
2024-05-17 08:18:00,SystemResetWarning,0822.7,4.99,000.00,025.1,024.4,000.0,033.2,026.9,016.0,0000.0,0007.43,0002.38,0001.62
2024-05-17 08:19:00,SystemResetWarning,0822.8,5.00,000.00,025.1,024.5,000.0,033.2,026.9,015.9,0000.0,0007.47,0002.41,0001.62
2024-05-17 08:20:00,SystemResetWarning,0822.8,5.00,000.00,025.2,024.5,000.0,033.2,027.0,015.7,0000.0,0007.40,0002.41,0001.62
2024-05-17 08:21:00,SystemResetWarning,0822.8,5.00,000.00,025.2,024.6,000.0,033.3,027.0,015.6,0000.0,0007.33,0002.38,0001.63
2024-05-17 08:22:00,SystemResetWarning,0822.7,5.00,000.00,025.2,024.7,000.0,033.3,027.0,015.5,0000.0,0007.34,0002.37,0001.64
2024-05-17 08:23:00,SystemResetWarning,0822.7,5.00,000.00,025.3,024.7,000.0,033.3,027.1,015.3,0000.0,0007.02,0002.37,0001.65
2024-05-17 08:24:00,SystemResetWarning,0822.8,4.99,000.00,025.3,024.7,000.0,033.3,027.1,015.3,0000.0,0006.15,0002.39,0001.66
2024-05-17 08:25:00,SystemResetWarning,0822.7,5.00,000.00,025.3,024.8,000.0,033.4,027.1,015.2,0000.0,0006.14,0002.39,0001.66
2024-05-17 08:26:00,SystemResetWarning,0823.0,5.01,000.00,025.4,024.8,000.0,033.4,027.2,015.1,0000.0,0006.44,0002.41,0001.66
2024-05-17 08:27:00,SystemResetWarning,0822.8,5.01,000.00,025.4,024.9,000.0,033.4,027.2,015.2,0000.0,0006.37,0002.38,0001.66
2024-05-17 08:28:00,SystemResetWarning,0822.8,5.01,000.00,025.4,024.9,000.0,033.5,027.2,015.3,0000.0,0006.56,0002.38,0001.67
2024-05-17 08:29:00,SystemResetWarning,0822.8,4.99,000.00,025.5,024.9,000.0,033.5,027.3,015.3,0000.0,0005.82,0002.37,0001.69
2024-05-17 08:30:00,SystemResetWarning,0822.8,4.98,000.00,025.5,025.0,000.0,033.5,027.3,015.1,0000.0,0006.13,0002.34,0001.71
2024-05-17 08:31:00,SystemResetWarning,0822.8,5.00,000.00,025.5,025.0,000.0,033.5,027.4,015.1,0000.0,0006.12,0002.30,0001.72
2024-05-17 08:32:00,SystemResetWarning,0822.8,5.01,000.00,025.6,025.0,000.0,033.6,027.4,015.0,0000.0,0006.97,0002.30,0001.72
2024-05-17 08:33:00,SystemResetWarning,0822.8,5.01,000.00,025.6,025.0,000.0,033.6,027.4,015.1,0000.0,0007.22,0002.25,0001.72
2024-05-17 08:34:00,SystemResetWarning,0822.7,5.00,000.00,025.6,025.1,000.0,033.6,027.4,015.3,0000.0,0007.18,0002.27,0001.73
2024-05-17 08:35:00,SystemResetWarning,0822.8,5.00,000.00,025.7,025.1,000.0,033.7,027.4,015.3,0000.0,0006.96,0002.33,0001.75
2024-05-17 08:36:00,SystemResetWarning,0822.8,4.98,000.00,025.5,023.5,000.0,033.7,026.5,015.2,0000.0,0006.96,0002.35,0001.75
2024-05-17 08:37:00,SystemResetWarning,0822.8,5.01,000.00,025.0,021.9,000.0,033.8,025.6,015.5,0000.0,0006.80,0002.41,0001.77
2024-05-17 08:38:00,SystemResetWarning,0822.8,5.01,000.00,024.8,022.0,000.0,033.7,025.6,015.6,0000.0,0007.58,0002.41,0001.78
2024-05-17 08:39:00,SystemResetWarning,0822.7,4.99,000.00,024.7,022.4,000.0,033.5,025.8,015.6,0000.0,0007.67,0002.41,0001.79
2024-05-17 08:40:00,SystemResetWarning,0822.8,4.99,000.00,024.7,022.7,000.0,033.4,026.1,015.7,0000.0,0007.39,0002.45,0001.78
2024-05-17 08:41:00,SystemResetWarning,0822.8,5.00,000.00,024.7,023.0,000.0,033.3,026.3,015.7,0000.0,0007.20,0002.47,0001.77
2024-05-17 08:42:00,SystemResetWarning,0822.8,5.02,000.00,024.8,023.3,000.0,033.3,026.4,015.8,0000.0,0007.30,0002.51,0001.77
2024-05-17 08:43:00,SystemResetWarning,0822.8,5.00,000.00,024.8,023.5,000.0,033.2,026.5,015.7,0000.0,0006.68,0002.55,0001.78
2024-05-17 08:44:00,SystemResetWarning,0822.7,4.99,000.00,024.9,023.7,000.0,033.2,026.6,015.6,0000.0,0006.14,0002.60,0001.79
2024-05-17 08:45:00,SystemResetWarning,0822.7,4.99,000.00,024.9,023.9,000.0,033.2,026.6,015.6,0000.0,0006.14,0002.60,0001.79
2024-05-17 08:46:00,SystemResetWarning,0822.8,5.00,000.00,024.9,024.0,000.0,033.2,026.7,015.7,0000.0,0006.13,0002.57,0001.77
2024-05-17 08:47:00,SystemResetWarning,0822.8,5.01,000.00,025.0,024.2,000.0,033.2,026.8,015.6,0000.0,0006.10,0002.57,0001.79
2024-05-17 08:48:00,SystemResetWarning,0822.8,5.01,000.00,025.0,024.3,000.0,033.2,026.8,015.5,0000.0,0005.91,0002.49,0001.77
2024-05-17 08:49:00,SystemResetWarning,0822.8,5.00,000.00,025.1,024.4,000.0,033.2,026.9,015.4,0000.0,0005.25,0002.45,0001.74
2024-05-17 08:50:00,SystemResetWarning,0822.8,4.99,000.00,025.1,024.4,000.0,033.2,026.9,015.4,0000.0,0004.07,0002.43,0001.72
2024-05-17 08:51:00,SystemResetWarning,0822.8,5.00,000.00,025.1,024.5,000.0,033.3,027.0,015.3,0000.0,0004.57,0002.50,0001.73
2024-05-17 08:52:00,SystemResetWarning,0822.7,5.00,000.00,025.2,024.6,000.0,033.3,027.0,015.2,0000.0,0005.14,0002.53,0001.72
2024-05-17 08:53:00,SystemResetWarning,0822.8,5.00,000.00,025.2,024.6,000.0,033.3,027.0,015.3,0000.0,0005.03,0002.50,0001.71
2024-05-17 08:54:00,SystemResetWarning,0822.6,5.00,000.00,025.3,024.7,000.0,033.3,027.1,015.1,0000.0,0004.90,0002.46,0001.70
2024-05-17 08:55:00,SystemResetWarning,0822.7,5.01,000.00,025.3,024.7,000.0,033.3,027.1,015.2,0000.0,0005.01,0002.46,0001.69
2024-05-17 08:56:00,SystemResetWarning,0822.7,5.01,000.00,025.3,024.7,000.0,033.3,027.1,015.2,0000.0,0005.05,0002.46,0001.69
2024-05-17 08:57:00,SystemResetWarning,0822.7,5.00,000.00,025.4,024.8,000.0,033.4,027.1,015.2,0000.0,0005.02,0002.46,0001.68
2024-05-17 08:58:00,SystemResetWarning,0822.7,5.00,000.00,025.4,024.8,000.0,033.4,027.2,015.0,0000.0,0005.05,0002.48,0001.68
2024-05-17 08:59:00,SystemResetWarning,0822.7,4.99,000.00,025.4,024.8,000.0,033.4,027.2,015.0,0000.0,0005.13,0002.48,0001.68
